Location: Azenweiler
(47.8027°N, 9.4096°E)
Time: 02:58:46
(UTC+00:00)

Cosmos 1626 Rocket - Pass Details

Date: 15 March 2026
Orbit: 596 x 624 km, 82.5° (Epoch: 13 April)

Event Time Altitude Azimuth Distance (km) Brightness Sun altitude
Rises 03:07:53 0° 0° (N) 2,902 7.4 -24.9°
Reaches altitude 10° 03:10:29 10° 15° (NNE) 1,986 6.6 -24.5°
Maximum altitude 03:14:06 24° 70° (ENE) 1,269 5.9 -24.0°
Drops below altitude 10° 03:17:39 10° 125° (SE) 1,958 6.5 -23.4°
Sets 03:20:11 0° 139° (SE) 2,852 7.2 -23.0°
